WXM80 ListenWXM80 Stop

You find our weather info also at:

UK Metoffice

WeatherCloud

Weather Underground

Northeastern Weather Network

AWEKAS

Citizen Weather Observer Program (CWOP)

HAMweather, WeatherForYou, PWS Weather


Weather Underground History page Text

Daily Summary for December 9, 2017 Units:  English    Metric   Both
« Previous Day
Next Day »
Daily Weekly Monthly Yearly Custom
  High: Low: Average:
Temperature: TemperatureF °F 32.6 °F 34.5 °F
Dew Point: DewpointF °F 22.2 °F 28.1 °F
Humidity: Humidity % 56 % 78 %
Wind Speed: WindSpeedMPH mph 0.0 mph 2.3 mph
Wind Gust: WindSpeedGustMPH mph - -
Wind:- - East
Pressure: PressureIn in 29.50 in -
Precipitation: 0.33 in    
Historical Graphs
 
 
Tabular Data for December 9, 2017
Time Temperature Dew Point Pressure Wind Wind Speed Wind Gust Humidity Rainfall Rate (Hourly)
TemperatureF °F DewpointF °F PressureIn in Calm     Humidity % HourlyPrecipIn in
00:00 36.6 °F 22.4 °F 29.95 in WNW 0.6 mph 4.6 mph 56 % 0.00 in
00:05 36.6 °F 22.4 °F 29.95 in WNW 1.4 mph 3.5 mph 56 % 0.00 in
00:10 36.5 °F 22.3 °F 29.95 in West 3.0 mph 3.5 mph 56 % 0.00 in
00:15 36.6 °F 22.4 °F 29.95 in West 1.3 mph 3.5 mph 56 % 0.00 in
00:20 36.5 °F 22.3 °F 29.95 in WNW 1.1 mph 5.0 mph 56 % 0.00 in
00:25 36.5 °F 22.3 °F 29.95 in WNW 2.4 mph 6.9 mph 56 % 0.00 in
00:30 36.5 °F 22.3 °F 29.96 in WNW 0.7 mph 3.5 mph 56 % 0.00 in
00:35 36.5 °F 22.7 °F 29.96 in West 0.9 mph 2.3 mph 57 % 0.00 in
00:40 36.5 °F 22.7 °F 29.97 in WNW 1.5 mph 3.5 mph 57 % 0.00 in
00:45 36.5 °F 22.7 °F 29.97 in NW 1.7 mph 3.5 mph 57 % 0.00 in
00:50 36.5 °F 23.1 °F 29.97 in WNW 1.5 mph 3.5 mph 58 % 0.00 in
00:55 36.5 °F 23.1 °F 29.97 in WNW 0.3 mph 1.2 mph 58 % 0.00 in
01:00 36.5 °F 23.1 °F 29.97 in WSW 2.8 mph 4.6 mph 58 % 0.00 in
01:05 36.5 °F 22.7 °F 29.97 in WSW 1.4 mph 4.6 mph 57 % 0.00 in
01:10 36.5 °F 22.3 °F 29.97 in West 0.5 mph 2.3 mph 56 % 0.00 in
01:15 36.4 °F 22.6 °F 29.97 in Calm   1.2 mph 57 % 0.00 in
01:20 36.4 °F 22.2 °F 29.96 in SW 0.4 mph 3.5 mph 56 % 0.00 in
01:25 36.4 °F 22.2 °F 29.96 in SW 0.4 mph 1.2 mph 56 % 0.00 in
01:26 36.4 °F 22.6 °F 29.96 in Calm   1.2 mph 57 % 0.00 in
01:36 36.4 °F 23.0 °F 29.96 in SW 0.4 mph 2.3 mph 58 % 0.00 in
01:41 36.4 °F 23.4 °F 29.96 in Calm     59 % 0.00 in
01:46 36.4 °F 23.0 °F 29.96 in Calm     58 % 0.00 in
01:51 36.3 °F 22.9 °F 29.95 in Calm     58 % 0.00 in
01:52 36.3 °F 22.9 °F 29.96 in Calm     58 % 0.00 in
01:57 36.3 °F 22.9 °F 29.96 in Calm     58 % 0.00 in
02:02 36.3 °F 22.9 °F 29.96 in Calm     58 % 0.00 in
02:07 36.2 °F 22.8 °F 29.97 in Calm   1.2 mph 58 % 0.00 in
02:12 36.2 °F 23.2 °F 29.96 in Calm     59 % 0.00 in
02:22 36.1 °F 23.1 °F 29.96 in Calm     59 % 0.00 in
02:27 36.0 °F 23.4 °F 29.95 in Calm     60 % 0.00 in
02:32 36.0 °F 23.4 °F 29.97 in SW 0.6 mph 1.2 mph 60 % 0.00 in
02:37 36.0 °F 23.0 °F 29.96 in Calm   1.2 mph 59 % 0.00 in
02:42 36.0 °F 23.0 °F 29.95 in Calm     59 % 0.00 in
02:47 35.9 °F 23.0 °F 29.95 in Calm     59 % 0.00 in
02:52 35.9 °F 23.0 °F 29.95 in Calm     59 % 0.00 in
02:57 35.9 °F 23.0 °F 29.96 in Calm   1.2 mph 59 % 0.00 in
03:03 35.9 °F 23.0 °F 29.96 in Calm     59 % 0.00 in
03:08 35.9 °F 23.4 °F 29.96 in Calm     60 % 0.00 in
03:13 35.9 °F 23.4 °F 29.95 in Calm     60 % 0.00 in
03:18 35.8 °F 23.3 °F 29.95 in Calm     60 % 0.00 in
03:23 35.8 °F 23.7 °F 29.95 in Calm     61 % 0.00 in
03:28 35.8 °F 23.7 °F 29.96 in Calm     61 % 0.00 in
03:33 35.7 °F 23.6 °F 29.96 in Calm     61 % 0.00 in
03:38 35.7 °F 23.2 °F 29.96 in Calm     60 % 0.00 in
03:43 35.7 °F 23.2 °F 29.96 in Calm     60 % 0.00 in
03:48 35.7 °F 23.2 °F 29.95 in Calm     60 % 0.00 in
03:53 35.7 °F 23.6 °F 29.96 in Calm     61 % 0.00 in
04:03 35.6 °F 23.1 °F 29.95 in Calm     60 % 0.00 in
04:04 35.6 °F 23.1 °F 29.95 in Calm     60 % 0.00 in
04:09 35.6 °F 23.1 °F 29.97 in Calm     60 % 0.00 in
04:14 35.6 °F 23.1 °F 29.95 in Calm     60 % 0.00 in
04:19 35.6 °F 23.1 °F 29.96 in Calm     60 % 0.00 in
04:24 35.6 °F 23.1 °F 29.96 in Calm   1.2 mph 60 % 0.00 in
04:29 35.6 °F 23.5 °F 29.96 in Calm     61 % 0.00 in
04:34 35.6 °F 23.5 °F 29.96 in Calm     61 % 0.00 in
04:39 35.6 °F 23.5 °F 29.96 in Calm     61 % 0.00 in
04:44 35.6 °F 23.5 °F 29.97 in SW 1.3 mph 3.5 mph 61 % 0.00 in
04:49 35.6 °F 23.5 °F 29.97 in SW 0.5 mph 1.2 mph 61 % 0.00 in
04:54 35.6 °F 23.5 °F 29.96 in Calm     61 % 0.00 in
04:59 35.6 °F 23.5 °F 29.95 in Calm     61 % 0.00 in
05:04 35.7 °F 23.6 °F 29.96 in Calm     61 % 0.00 in
05:09 35.7 °F 23.6 °F 29.96 in Calm     61 % 0.00 in
05:14 35.7 °F 23.9 °F 29.96 in Calm     62 % 0.00 in
05:19 35.7 °F 23.9 °F 29.95 in Calm     62 % 0.00 in
05:24 35.7 °F 23.9 °F 29.95 in Calm     62 % 0.00 in
05:29 35.8 °F 24.0 °F 29.95 in SW 0.1 mph 1.2 mph 62 % 0.00 in
05:34 35.8 °F 24.0 °F 29.94 in Calm     62 % 0.00 in
05:39 35.8 °F 24.0 °F 29.95 in Calm     62 % 0.00 in
05:44 35.8 °F 24.0 °F 29.94 in Calm     62 % 0.00 in
05:49 35.8 °F 24.0 °F 29.94 in SW 0.2 mph 1.2 mph 62 % 0.00 in
05:54 35.8 °F 24.0 °F 29.94 in Calm     62 % 0.00 in
05:59 35.8 °F 24.0 °F 29.93 in Calm     62 % 0.00 in
06:04 35.8 °F 24.0 °F 29.93 in Calm     62 % 0.00 in
06:09 35.8 °F 24.4 °F 29.94 in Calm     63 % 0.00 in
06:14 35.8 °F 24.4 °F 29.94 in Calm     63 % 0.00 in
06:19 35.7 °F 24.3 °F 29.94 in Calm     63 % 0.00 in
06:24 35.7 °F 24.3 °F 29.94 in Calm     63 % 0.00 in
06:30 35.7 °F 24.3 °F 29.95 in Calm     63 % 0.00 in
06:35 35.7 °F 24.3 °F 29.93 in NNW 1.2 mph 2.0 mph 63 % 0.00 in
06:40 35.7 °F 24.7 °F 29.94 in NNE 1.9 mph 4.0 mph 64 % 0.00 in
06:45 35.8 °F 24.8 °F 29.94 in North 2.3 mph 3.5 mph 64 % 0.00 in
06:50 35.9 °F 24.9 °F 29.95 in NNW 2.5 mph 4.6 mph 64 % 0.00 in
06:52 35.9 °F 24.9 °F 29.95 in NNW 1.3 mph 2.0 mph 64 % 0.00 in
06:57 36.0 °F 25.0 °F 29.96 in NNE 2.5 mph 2.5 mph 64 % 0.00 in
07:02 36.1 °F 25.1 °F 29.95 in NNE 0.6 mph 3.5 mph 64 % 0.00 in
07:08 36.1 °F 25.5 °F 29.95 in NNE 3.4 mph 3.5 mph 65 % 0.00 in
07:13 36.2 °F 25.2 °F 29.96 in NNE 2.0 mph 4.6 mph 64 % 0.00 in
07:18 36.3 °F 25.3 °F 29.96 in North 1.8 mph 4.6 mph 64 % 0.00 in
07:27 36.4 °F 25.0 °F 29.95 in NNE 4.3 mph 6.0 mph 63 % 0.00 in
07:33 36.5 °F 25.5 °F 29.96 in North 1.2 mph 4.6 mph 64 % 0.00 in
07:38 36.5 °F 25.5 °F 29.96 in North 2.6 mph 4.6 mph 64 % 0.00 in
07:48 36.6 °F 25.9 °F 29.95 in NE 4.0 mph 5.8 mph 65 % 0.00 in
07:53 36.6 °F 25.6 °F 29.95 in NNE 2.9 mph 3.5 mph 64 % 0.00 in
07:58 36.6 °F 25.6 °F 29.95 in ENE 1.3 mph 3.5 mph 64 % 0.00 in
08:03 36.7 °F 25.7 °F 29.95 in NE 3.5 mph 5.8 mph 64 % 0.00 in
08:08 36.8 °F 26.1 °F 29.95 in North 2.9 mph 4.0 mph 65 % 0.00 in
08:13 36.9 °F 26.2 °F 29.95 in NNE 4.5 mph 6.9 mph 65 % 0.00 in
08:18 36.9 °F 25.9 °F 29.94 in NE 5.1 mph 7.0 mph 64 % 0.00 in
08:23 37.0 °F 26.3 °F 29.93 in NNE 3.4 mph 4.6 mph 65 % 0.00 in
08:33 37.1 °F 26.4 °F 29.93 in NNE 1.5 mph 4.6 mph 65 % 0.00 in
08:38 37.2 °F 26.5 °F 29.93 in NNW 1.1 mph 3.5 mph 65 % 0.00 in
08:43 37.2 °F 25.8 °F 29.92 in NNE 1.6 mph 4.6 mph 63 % 0.00 in
08:48 37.2 °F 26.1 °F 29.93 in NE 2.4 mph 4.0 mph 64 % 0.00 in
08:53 37.3 °F 26.2 °F 29.92 in NE 1.4 mph 3.5 mph 64 % 0.00 in
08:58 37.3 °F 26.2 °F 29.91 in NNE 2.7 mph 5.0 mph 64 % 0.00 in
09:03 37.4 °F 25.9 °F 29.91 in ENE 5.0 mph 5.0 mph 63 % 0.00 in
09:08 37.4 °F 25.9 °F 29.91 in NNE 4.9 mph 9.2 mph 63 % 0.00 in
09:13 37.5 °F 26.4 °F 29.92 in NNE 2.4 mph 4.6 mph 64 % 0.00 in
09:19 37.5 °F 26.0 °F 29.92 in NNE 4.2 mph 8.1 mph 63 % 0.00 in
09:24 37.5 °F 26.0 °F 29.92 in NE 1.7 mph 5.8 mph 63 % 0.00 in
09:29 37.6 °F 26.5 °F 29.93 in NNE 5.0 mph 8.1 mph 64 % 0.00 in
09:34 37.6 °F 26.1 °F 29.93 in North 4.8 mph 8.1 mph 63 % 0.00 in
09:39 37.6 °F 26.5 °F 29.93 in NE 3.7 mph 6.9 mph 64 % 0.00 in
09:44 37.6 °F 26.5 °F 29.93 in North 5.6 mph 9.2 mph 64 % 0.00 in
09:49 37.5 °F 26.8 °F 29.93 in NE 3.9 mph 6.0 mph 65 % 0.00 in
09:54 37.5 °F 26.8 °F 29.93 in NNE 3.5 mph 5.8 mph 65 % 0.00 in
09:59 37.4 °F 27.1 °F 29.93 in North 4.9 mph 7.0 mph 66 % 0.00 in
10:04 37.4 °F 27.4 °F 29.93 in NNE 4.6 mph 6.9 mph 67 % 0.00 in
10:09 37.3 °F 27.7 °F 29.92 in NNW 3.8 mph 9.2 mph 68 % 0.00 in
10:14 37.1 °F 27.9 °F 29.92 in NE 6.5 mph 11.5 mph 69 % 0.00 in
10:19 36.9 °F 28.0 °F 29.92 in North 3.2 mph 5.0 mph 70 % 0.00 in
10:24 36.7 °F 28.5 °F 29.92 in NNE 4.8 mph 7.0 mph 72 % 0.00 in
10:29 36.4 °F 28.6 °F 29.92 in North 3.5 mph 4.0 mph 73 % 0.00 in
10:34 36.1 °F 28.6 °F 29.93 in NE 3.3 mph 5.8 mph 74 % 0.00 in
10:39 35.9 °F 29.1 °F 29.93 in NNE 1.4 mph 3.5 mph 76 % 0.00 in
10:44 35.7 °F 29.2 °F 29.93 in NNE 2.0 mph 5.8 mph 77 % 0.00 in
10:49 35.3 °F 29.1 °F 29.93 in NE 4.5 mph 6.0 mph 78 % 0.00 in
10:54 35.0 °F 29.5 °F 29.92 in NNE 2.2 mph 3.5 mph 80 % 0.00 in
10:59 34.8 °F 29.9 °F 29.92 in NNE 4.1 mph 5.8 mph 82 % 0.00 in
11:04 34.5 °F 29.6 °F 29.91 in NNE 1.3 mph 3.5 mph 82 % 0.00 in
11:09 34.3 °F 29.7 °F 29.90 in North 3.5 mph 4.6 mph 83 % 0.00 in
11:14 34.1 °F 29.8 °F 29.90 in NNE 3.4 mph 4.6 mph 84 % 0.00 in
11:19 34.0 °F 30.0 °F 29.90 in NNE 4.9 mph 6.9 mph 85 % 0.00 in
11:24 33.9 °F 30.2 °F 29.89 in NNE 0.2 mph 2.3 mph 86 % 0.01 in
11:29 33.8 °F 30.3 °F 29.89 in NNE 0.3 mph 3.5 mph 87 % 0.01 in
11:34 33.8 °F 30.3 °F 29.89 in NNE 1.5 mph 3.0 mph 87 % 0.02 in
11:39 33.7 °F 30.5 °F 29.89 in ENE 1.7 mph 3.5 mph 88 % 0.03 in
11:44 33.5 °F 30.6 °F 29.88 in ENE 0.6 mph 2.3 mph 89 % 0.03 in
11:49 33.4 °F 30.5 °F 29.88 in ENE 0.1 mph   89 % 0.04 in
11:55 33.3 °F 30.4 °F 29.87 in ENE 0.6 mph 2.3 mph 89 % 0.04 in
12:00 33.2 °F 30.6 °F 29.87 in ENE 0.1 mph 2.3 mph 90 % 0.04 in
12:05 33.1 °F 30.5 °F 29.86 in North 1.3 mph 3.5 mph 90 % 0.04 in
12:10 33.2 °F 30.9 °F 29.86 in North 1.1 mph 3.5 mph 91 % 0.04 in
12:15 33.3 °F 31.0 °F 29.85 in North 0.1 mph 2.3 mph 91 % 0.05 in
12:20 33.3 °F 31.0 °F 29.84 in ENE 0.5 mph 3.5 mph 91 % 0.04 in
12:25 33.4 °F 31.1 °F 29.84 in NNE 1.5 mph 3.5 mph 91 % 0.04 in
12:30 33.5 °F 31.4 °F 29.83 in NNE 0.9 mph 2.3 mph 92 % 0.04 in
12:35 33.5 °F 31.4 °F 29.84 in NNE 3.4 mph 6.9 mph 92 % 0.04 in
12:40 33.5 °F 31.4 °F 29.83 in ENE 1.3 mph 8.0 mph 92 % 0.03 in
12:45 33.5 °F 31.4 °F 29.83 in NE 4.9 mph 6.9 mph 92 % 0.03 in
12:50 33.5 °F 31.4 °F 29.83 in NNE 2.4 mph 6.0 mph 92 % 0.02 in
13:00 33.6 °F 31.5 °F 29.82 in ENE 2.1 mph 3.5 mph 92 % 0.02 in
13:05 33.6 °F 31.8 °F 29.82 in ENE 2.3 mph 4.6 mph 93 % 0.03 in
13:10 33.6 °F 31.8 °F 29.82 in NNE 2.5 mph 3.5 mph 93 % 0.03 in
13:15 33.7 °F 31.9 °F 29.82 in NNE 2.3 mph 3.5 mph 93 % 0.02 in
13:20 33.6 °F 31.8 °F 29.80 in NNE 4.3 mph 8.1 mph 93 % 0.02 in
13:25 33.6 °F 31.8 °F 29.80 in NNE 4.7 mph 6.0 mph 93 % 0.02 in
13:30 33.6 °F 31.8 °F 29.80 in NNE 5.6 mph 8.0 mph 93 % 0.03 in
13:35 33.6 °F 31.8 °F 29.80 in NNE 4.6 mph 9.0 mph 93 % 0.02 in
13:40 33.5 °F 31.7 °F 29.80 in North 7.3 mph 9.2 mph 93 % 0.02 in
13:45 33.5 °F 31.7 °F 29.80 in NNE 5.4 mph 9.2 mph 93 % 0.03 in
13:50 33.5 °F 31.7 °F 29.79 in NNE 3.2 mph 6.0 mph 93 % 0.03 in
13:55 33.5 °F 31.7 °F 29.79 in NNE 5.8 mph 11.5 mph 93 % 0.03 in
14:00 33.4 °F 31.6 °F 29.78 in NE 4.4 mph 5.8 mph 93 % 0.04 in
14:05 33.4 °F 31.9 °F 29.77 in NE 2.9 mph 6.0 mph 94 % 0.03 in
14:15 33.4 °F 31.9 °F 29.77 in NNE 6.0 mph 10.0 mph 94 % 0.00 in
14:20 33.4 °F 31.9 °F 29.77 in NE 3.0 mph 9.0 mph 94 % 0.01 in
14:30 33.4 °F 31.9 °F 29.77 in NE 2.9 mph 8.1 mph 94 % 0.03 in
14:35 33.4 °F 31.9 °F 29.78 in NNE 3.8 mph 5.8 mph 94 % 0.03 in
14:40 33.4 °F 31.9 °F 29.77 in NE 6.0 mph 9.0 mph 94 % 0.00 in
14:51 33.5 °F 32.0 °F 29.77 in NE 5.0 mph 12.0 mph 94 % 0.00 in
14:56 33.5 °F 32.0 °F 29.76 in NE 3.0 mph 12.0 mph 94 % 0.00 in
15:01 33.5 °F 32.0 °F 29.76 in NE 4.2 mph 8.1 mph 94 % 0.01 in
15:06 33.5 °F 32.0 °F 29.75 in NE 6.0 mph 13.0 mph 94 % 0.00 in
15:21 33.5 °F 31.9 °F 29.76 in NNE 3.0 mph 10.0 mph 94 % 0.00 in
15:30 33.4 °F 31.9 °F 29.75 in NNE 5.0 mph 12.0 mph 94 % 0.00 in
15:40 33.4 °F 31.9 °F 29.75 in NNE 7.0 mph 13.0 mph 94 % 0.00 in
15:41 33.4 °F 31.9 °F 29.75 in NNE 4.8 mph 8.1 mph 94 % 0.03 in
15:46 33.4 °F 31.9 °F 29.75 in NE 6.8 mph 10.4 mph 94 % 0.03 in
15:51 33.4 °F 32.1 °F 29.75 in NNE 5.9 mph 12.0 mph 95 % 0.03 in
15:56 33.4 °F 32.1 °F 29.74 in NNE 7.4 mph 11.5 mph 95 % 0.03 in
16:01 33.4 °F 32.1 °F 29.74 in ENE 7.8 mph 10.4 mph 95 % 0.03 in
16:06 33.4 °F 32.1 °F 29.73 in NE 5.5 mph 11.5 mph 95 % 0.03 in
16:11 33.4 °F 32.1 °F 29.74 in NNE 5.5 mph 10.0 mph 95 % 0.03 in
16:16 33.4 °F 32.1 °F 29.73 in NNE 5.5 mph 8.1 mph 95 % 0.03 in
16:21 33.4 °F 32.1 °F 29.73 in NE 9.0 mph 11.5 mph 95 % 0.04 in
16:26 33.4 °F 32.1 °F 29.73 in NE 5.6 mph 15.0 mph 95 % 0.03 in
16:31 33.3 °F 32.0 °F 29.73 in NE 8.9 mph 12.0 mph 95 % 0.03 in
16:36 33.3 °F 32.0 °F 29.73 in NNE 6.4 mph 15.0 mph 95 % 0.03 in
16:46 33.3 °F 32.0 °F 29.73 in NNE 8.9 mph 11.5 mph 95 % 0.03 in
16:51 33.3 °F 32.0 °F 29.73 in North 6.1 mph 11.5 mph 95 % 0.03 in
16:56 33.3 °F 32.0 °F 29.73 in North 7.2 mph 11.5 mph 95 % 0.04 in
17:02 33.3 °F 32.0 °F 29.73 in NNE 7.8 mph 11.5 mph 95 % 0.04 in
17:07 33.3 °F 32.0 °F 29.73 in NNE 7.3 mph 10.4 mph 95 % 0.03 in
17:12 33.3 °F 32.0 °F 29.73 in North 8.0 mph 12.0 mph 95 % 0.04 in
17:17 33.2 °F 31.9 °F 29.72 in NNE 6.4 mph 12.7 mph 95 % 0.04 in
17:22 33.2 °F 31.9 °F 29.71 in North 6.2 mph 11.5 mph 95 % 0.03 in
17:27 33.2 °F 31.9 °F 29.71 in NNE 5.5 mph 8.1 mph 95 % 0.03 in
17:32 33.2 °F 31.9 °F 29.72 in North 5.8 mph 10.4 mph 95 % 0.03 in
17:47 33.1 °F 31.8 °F 29.72 in North 7.1 mph 10.4 mph 95 % 0.03 in
17:52 33.1 °F 31.8 °F 29.71 in NNE 3.7 mph 5.0 mph 95 % 0.03 in
17:57 33.0 °F 31.7 °F 29.71 in North 8.3 mph 11.5 mph 95 % 0.02 in
18:07 33.0 °F 31.7 °F 29.73 in NNE 3.7 mph 9.2 mph 95 % 0.03 in
18:17 33.0 °F 31.7 °F 29.71 in NE 6.6 mph 11.5 mph 95 % 0.03 in
18:22 33.0 °F 32.0 °F 29.72 in NNE 5.0 mph 8.0 mph 96 % 0.03 in
18:32 32.9 °F 31.6 °F 29.71 in North 6.2 mph 8.1 mph 95 % 0.04 in
18:37 32.9 °F 31.6 °F 29.71 in NNE 8.2 mph 11.0 mph 95 % 0.03 in
18:42 32.9 °F 31.9 °F 29.70 in North 6.7 mph 10.4 mph 96 % 0.03 in
18:48 32.9 °F 31.9 °F 29.70 in NNE 5.4 mph 10.4 mph 96 % 0.03 in
18:53 32.9 °F 31.9 °F 29.70 in NNE 5.1 mph 8.1 mph 96 % 0.03 in
18:58 32.9 °F 31.9 °F 29.71 in North 5.4 mph 10.4 mph 96 % 0.04 in
19:03 32.9 °F 31.9 °F 29.71 in NNE 7.0 mph 9.2 mph 96 % 0.03 in
19:08 32.9 °F 31.9 °F 29.71 in North 6.5 mph 10.0 mph 96 % 0.03 in
19:13 32.9 °F 31.9 °F 29.71 in NNE 2.7 mph 4.6 mph 96 % 0.03 in
19:18 32.9 °F 31.9 °F 29.71 in NNE 6.1 mph 10.4 mph 96 % 0.02 in
19:23 32.9 °F 31.9 °F 29.71 in NNE 5.2 mph 6.9 mph 96 % 0.03 in
19:28 32.9 °F 31.9 °F 29.70 in NE 5.5 mph 7.0 mph 96 % 0.03 in
19:33 32.8 °F 31.8 °F 29.70 in NNE 6.3 mph 8.1 mph 96 % 0.02 in
19:38 32.8 °F 31.8 °F 29.70 in North 5.5 mph 10.0 mph 96 % 0.02 in
19:43 32.8 °F 31.8 °F 29.70 in NNE 4.5 mph 5.8 mph 96 % 0.02 in
19:48 32.8 °F 31.8 °F 29.71 in Calm   3.5 mph 96 % 0.02 in
19:53 32.8 °F 31.8 °F 29.72 in Calm     96 % 0.02 in
19:58 32.8 °F 31.8 °F 29.72 in Calm     96 % 0.02 in
20:03 32.8 °F 31.8 °F 29.72 in Calm     96 % 0.02 in
20:08 32.8 °F 31.8 °F 29.72 in Calm     96 % 0.02 in
20:13 32.8 °F 31.8 °F 29.72 in Calm     96 % 0.02 in
20:18 32.8 °F 31.8 °F 29.72 in Calm     96 % 0.03 in
20:23 32.8 °F 31.8 °F 29.71 in Calm     96 % 0.02 in
20:28 32.8 °F 31.8 °F 29.71 in Calm     96 % 0.02 in
20:33 32.8 °F 31.8 °F 29.71 in Calm     96 % 0.02 in
20:38 32.8 °F 31.8 °F 29.71 in Calm     96 % 0.03 in
20:43 32.8 °F 31.8 °F 29.71 in Calm     96 % 0.03 in
20:49 32.8 °F 31.8 °F 29.71 in Calm     96 % 0.03 in
20:54 32.8 °F 31.8 °F 29.72 in Calm     96 % 0.02 in
20:59 32.8 °F 31.8 °F 29.71 in Calm     96 % 0.03 in
21:04 32.8 °F 31.8 °F 29.70 in Calm     96 % 0.03 in
21:09 32.8 °F 31.8 °F 29.70 in Calm     96 % 0.03 in
21:14 32.8 °F 31.8 °F 29.71 in Calm     96 % 0.04 in
21:24 32.8 °F 31.8 °F 29.71 in Calm     96 % 0.03 in
21:29 32.8 °F 31.8 °F 29.71 in Calm     96 % 0.03 in
21:34 32.8 °F 31.8 °F 29.71 in Calm     96 % 0.03 in
21:39 32.8 °F 31.8 °F 29.70 in Calm     96 % 0.02 in
21:44 32.8 °F 31.8 °F 29.71 in Calm     96 % 0.02 in
21:49 32.8 °F 31.8 °F 29.71 in Calm     96 % 0.03 in
21:54 32.7 °F 31.7 °F 29.71 in Calm     96 % 0.03 in
22:04 32.8 °F 31.8 °F 29.72 in Calm     96 % 0.02 in
22:09 32.8 °F 31.8 °F 29.72 in Calm     96 % 0.02 in
22:14 32.8 °F 31.8 °F 29.72 in Calm     96 % 0.01 in
22:18 32.8 °F 31.8 °F 29.50 in Calm     96 % 0.01 in
22:19 32.8 °F 31.8 °F 29.71 in Calm     96 % 0.01 in
22:20 32.8 °F 31.8 °F 29.50 in Calm     96 % 0.01 in
22:24 32.8 °F 31.8 °F 29.50 in Calm     96 % 0.01 in
22:29 32.8 °F 31.8 °F 29.71 in Calm     96 % 0.02 in
22:34 32.8 °F 31.8 °F 29.71 in Calm     96 % 0.02 in
22:40 32.8 °F 31.8 °F 29.71 in Calm     96 % 0.02 in
22:45 32.8 °F 31.8 °F 29.71 in Calm     96 % 0.02 in
22:55 32.8 °F 31.8 °F 29.70 in Calm     96 % 0.02 in
23:00 32.8 °F 31.8 °F 29.71 in Calm     96 % 0.02 in
23:05 32.8 °F 31.8 °F 29.71 in Calm     96 % 0.02 in
23:10 32.7 °F 31.7 °F 29.71 in Calm     96 % 0.02 in
23:20 32.7 °F 31.7 °F 29.71 in Calm     96 % 0.02 in
23:30 32.6 °F 31.6 °F 29.71 in Calm     96 % 0.01 in
23:35 32.7 °F 31.7 °F 29.71 in Calm     96 % 0.01 in
23:40 32.7 °F 31.7 °F 29.71 in Calm     96 % 0.01 in
23:45 32.7 °F 31.7 °F 29.71 in Calm     96 % 0.01 in
23:55 32.8 °F 31.8 °F 29.71 in Calm     96 % 0.00 in
Crab Meadow Weather
Compliments of Weather Underground - 3 mb

Script developed by  Jim McMurry - jmcmurry@mwt.net Adapted for the template by  Wim van der Kuil - Leuven-Template.eu

Weather Terms: Flash Flood Warning - Flash flooding is occurring, imminent or highly likely. A flash flood is a flood that occurs within 6 hours of excessive rainfall and that poses a threat to life and/or property. Ice jams and dam failures can also cause flash floods. These warnings are issued on a county by county basis by the local Weather Forecast Office in Upton and are generally in effect for up to 6 hours.